Showing default

OPS 4078 (DMSP 4B F2), 3510

Orbit data source: Space-Track

OPS 4078 (DMSP 4B F2), 3510 is a payload satellite owned by SAMSO (US) in SSO that was launched on Wed, 23 Oct 1968 UTC via a THOR BURNER 2 launch vehicle from the Air Force Western Test Range (AFWTR). Payload-class satellites include a variety of spacecraft equipped with specific instruments for various scientific and technological missions. These include communications satellites like Starlink; space stations such as the ISS; scientific satellites like the Hubble; Earth observation satellites from companies like Planet Labs, Umbra, and HawkEye 360; GPS; miniature CubeSats for education and research; and military/defense satellites.

Loading next visibility...
Identifier
3510, 1968-092A
Orbit
SSO
Country
Flag of USUS
Related business
Manufacturer
RCA/East Windsor
Mission
Non-operational spacecraft
Bus & Motor
DMSP BLOCK 4B, Unknown motor
Mass
79 kg wet, 79 kg dry
Launch date (UTC)
1968-10-23 (58 years ago)
Launch vehicle
THOR BURNER 2
Launch site
Air Force Western Test Range (AFWTR)
Object type
Payload
Rocket body
Debris
Shape & HBR
Unknown
Radar Cross Section
Medium (>0.1 m² and <1 m²)

Expand to show TLE details & history
Last TLE update: 13 hours ago

TLE from 13 hours ago
0 OPS 4078 (DMSP 4B F2)
1 03510U 68092A   26165.28389095  .00000070  00000-0  45165-4 0  9990
2 03510  98.5722 287.8907 0029214 338.3359  21.6585 14.28251513996831
Epoch: 2026-06-14T06:48Z
TLE epoch observation values (Epoch: 2026-06-14T06:48:48.178Z)
Latitude
0.00004°
Longitude
-76.89689°
Altitude
781.033 km
Speed
7.473 km/s
True Right ascension
19h 11m 33s
True Declination
0° 00' 00"
Sunlit
Object was in full shadow at epoch
Visualization orbit readout
Latitude
Unknown
Longitude
Unknown
Altitude
Unknown
Speed
Unknown
Apparent Right ascension
Unknown
Apparent Declination
Unknown
Sunlit
N/A
Visualization observer readout
Local Sidereal Time
06:11:01
Azimuth
Unknown
Elevation
Unknown
Doppler factor
Unknown
Orbital elements
Apogee altitude
815.677 km
Perigee altitude
773.767 km
Semi-major axis
7,172.859 km
Eccentricity
0.00292
Inclination
98.5722°
RAAN
287.8907°
Arg. of periapsis
338.3359°
True anomaly
21.78247°
Mean anomaly
21.6585°
Eccentric anomaly
21.72045°
Mean motion
3.57277 °/min
Orbital period
100.76 mins
BSTAR
0.000045165
Loading maneuver chart data...
Computing Atmospheric mass density...
Loading historical data...
Loading historical data...
Loading historical data...
Loading historical data...
Loading historical data...
Loading historical data...
Loading historical data...
Other satellites on launch #92 in the year 1968 (1968-10-23 UTC)

Documentation

Showing up to 5 results
|